Location: Saratoga Springs
(43.0831°N, 73.7850°W)
Time: 12:02:43
(UTC-04:00)

Vanguard 3 - Pass Details

Date: 24 April 2024
Orbit: 509 x 3233 km, 33.3° (Epoch: 23 May)

Event Time Altitude Azimuth Distance (km) Brightness Sun altitude
Exits shadow 02:37:22 33° 175° (S) 3,953 10.1 -29.0°
Maximum altitude 02:40:32 35° 156° (SSE) 3,652 10.1 -28.7°
Drops below altitude 10° 02:51:30 10° 97° (E) 4,328 11.1 -27.7°
Sets 02:54:42 0° 88° (E) 4,974 11.6 -27.4°
